Location: ????????
(55.0559°N, 39.1270°E)
Time: 01:36:41
(UTC+00:00)

ADEOS II - Pass Details

Date: 15 November 2025
Orbit: 794 x 794 km, 98.8° (Epoch: 12 December)

Event Time Altitude Azimuth Distance (km) Brightness Sun altitude
Rises 01:55:12 0° 12° (NNE) 3,313 5.5 -25.5°
Reaches altitude 10° 01:57:48 10° 1° (N) 2,379 4.6 -25.1°
Enters shadow 01:59:49 20° 344° (NNW) 1,779 3.7 -24.8°
